Location: Bowden
(51.9167°N, 114.0333°W)
Time: 01:55:05
(UTC+00:00)

Envisat - Pass Details

Date: 13 December 2021
Orbit: 764 x 766 km, 98.2° (Epoch: 28 January)

Event Time Altitude Azimuth Distance (km) Brightness Sun altitude
Rises 14:54:51 0° 3° (N) 3,248 6.0 -6.1°
Reaches altitude 10° 14:58:29 10° 336° (NNW) 2,316 5.0 -5.6°
Maximum altitude 15:00:37 13° 311° (NW) 2,126 4.7 -5.3°
Drops below altitude 10° 15:02:46 10° 286° (WNW) 2,310 4.9 -5.0°
Sets 15:06:24 0° 259° (WSW) 3,231 5.8 -4.6°
